186  
ASUS43 KTOP 180308  
RWRKS  
 
WEATHER ROUNDUP FOR KANSAS  
NATIONAL WEATHER SERVICE GOODLAND KS  
1000 PM CDT SAT APR 17 2021  
 
NOTE: "FAIR" INDICATES FEW OR NO CLOUDS BELOW 12,000 FEET WITH NO  
SIGNIFICANT WEATHER AND/OR S TO VISIBILITY
.  
 
KSZ001>006-013>018-027>032-041>047-180400-  
NORTHWEST KANSAS  
 
CITY SKY/WX TMP DP RH WIND PRES REMARKS
 
GOODLAND CLEAR 31 24 75 NW5 30.17R  
HAYS CLOUDY 43 34 70 N6 30.16R  
HILL CITY CLOUDY 37 32 82 N7 30.17R  
RUSSELL PTCLDY 41 32 70 N8 30.14R  

 
 
KSZ061>065-074>080-084>089-180400-  
SOUTHWEST KANSAS  
 
CITY SKY/WX TMP DP RH WIND PRES REMARKS
 
DODGE CITY CLOUDY 43 38 82 NW5 30.16R  
ELKHART PTCLDY 38 24 57 NW8 30.23R  
GARDEN CITY PTCLDY 37 35 92 N3 30.18R  
GREAT BEND PTCLDY 39 36 89 CALM 30.16R  
LIBERAL PTCLDY 37 29 72 W6 30.20R  
PRATT PTCLDY 40 37 91 W3 30.16R  

 
 
KSZ066>073-081>083-090>101-180400-  
SOUTHEAST KANSAS  
 
CITY SKY/WX TMP DP RH WIND PRES REMARKS
 
CHANUTE CLOUDY 50 43 77 CALM 30.11R  
COFFEYVILLE PTCLDY 46 39 76 W3 30.11R  
HUTCHINSON CLOUDY 46 39 76 NW5 30.14R  
MEDICINE LODGE N/A 44 37 76 W5 30.16R  
NEWTON PTCLDY 43 38 82 NW5 30.14R  
PARSONS CLOUDY 44 42 93 CALM 30.12R  
WICHITA INTL MOCLDY 45 39 79 W5 30.14R  
WICHITA JABRA CLOUDY 46 39 76 NW7 30.13R  
WICHITA MCCONL CLOUDY 46 44 92 NW6 30.13R  
WINFIELD CLOUDY 49 42 77 NW7 30.14R  

 
 
KSZ007>012-019>026-033>040-048>060-102>105-180400-  
NORTHEAST KANSAS  
 
CITY SKY/WX TMP DP RH WIND PRES REMARKS
 
CONCORDIA CLEAR 43 36 76 NW7 30.14R  
EMPORIA CLOUDY 48 42 80 NW6 30.11R  
LAWRENCE CLOUDY 49 44 83 W3 30.09R  
MANHATTAN MOCLDY 43 38 82 W3 30.12R  
MARYSVILLE CLEAR 43 36 75 NW5 30.11R  
OLATHE IND LGT RAIN 49 41 74 NW5 30.08R  
OLATHE EXE CLOUDY 50 41 71 NW6 30.07R  
SALINA PTCLDY 43 39 86 NW6 30.15R  
TOPEKA BILLARD CLEAR 48 38 68 NW9 30.10R  
TOPEKA FORBES CLEAR 46 41 82 NW9 30.10R  

 
 
 
CLICK HERE TO GO TO PREVIOUS BULLETINS.

The Nexlab KS Page Main Text Page